Regional Weather Roundup
Issued by NWS Charleston, SC

Current Version | Previous Version | Graphics & Text | Print | Product List | Glossary On
Versions: 1 2 3 4 5 6 7 8 9 10 11 12 13 14 15 16 17 18 19 20 21 22 23 24 25 26 27 28 29 30 31 32 33 34 35 36 37 38 39 40 41 42 43 44 45 46 47 48 49 50
000
ASUS42 KCHS 301628
RWRCHS

REGIONAL WEATHER ROUNDUP
NATIONAL WEATHER SERVICE CHARLESTON SC
1200 PM EDT SAT JUL 30 2016

NOTE: "FAIR" INDICATES FEW OR NO CLOUDS BELOW 12,000 FEET WITH NO
SIGNIFICANT WEATHER AND/OR OBSTRUCTIONS TO VISIBILITY.

NOT ALL STATIONS ARE QUALITY CONTROLLED. USE DATA WITH CAUTION...
ESPECIALLY DEWPOINT OBSERVATIONS.

SCZ027-030-031-034>040-042>050-301700-
...SOUTHEAST SOUTH CAROLINA...

CITY           SKY/WX    TMP DP  RH WIND       PRES   REMARKS
N CHARLESTON   MOSUNNY   95  72  47 CALM      30.02S HX 103
WATERFRONT PRK   N/A     92  73  53 VRB3      30.01R HX 101
MOUNT PLEASANT FAIR      93  72  49 CALM      30.02S HX 100
JOHNS ISLAND   FAIR      95  73  49 S6        30.03S HX 105
PINOPOLIS        N/A     91  73  55 CALM      29.93F HX 100
MONCKS CORNER  FAIR      91  64  40 W3        30.02S HX  93
SUMMERVILLE    FAIR      95  72  46 S6        30.03S HX 103
BEAUFORT MCAS  MOSUNNY   95  71  45 VRB6      30.03S HX 102
BEAUFORT ARPT  FAIR      95  72  46 W6        30.03S HX 103
HILTON HEAD IS MOSUNNY  100  72  39 SW6       30.05R HX 109
WALTERBORO     SUNNY     95  70  43 SW7       30.03F HX 101
ALLENDALE      FAIR      93  70  46 VRB5      30.02S HX  99

...SOUTHERN MIDLANDS AND PEE DEE...

CITY           SKY/WX    TMP DP  RH WIND       PRES   REMARKS
GEORGETOWN     FAIR      93  72  49 W5        30.03R HX 100
KINGSTREE      FAIR      93  68  43 SW6       30.01S HX  97
ORANGEBURG     SUNNY     94  70  45 W9G17     30.03S HX 100
BARNWELL       NOT AVBL
AIKEN          FAIR      91  70  49 SW7       30.06F HX  97
MANNING        FAIR      95  70  43 SW6       30.01F HX 101
COLUMBIA       PTSUNNY   96  68  39 W13       30.01S HX 101
SUMTER         MOSUNNY   91  73  55 S8        30.00S HAZE    HX  99
FLORENCE       SUNNY     93  72  50 SW14      30.01R HX 101
MYRTLE BEACH   NOT AVBL
N MYRTLE BEACH SUNNY     96  72  45 W5        30.00S HX 104

$$

GAZ063-065-086>088-099>101-113>116-118-119-134>141-150-301700-
...SOUTHEAST GEORGIA...

CITY           SKY/WX    TMP DP  RH WIND       PRES   REMARKS
SAVANNAH ARPT  MOSUNNY   94  69  44 W5        30.04S HX  99
HUNTER AAF     SUNNY     95  74  51 VRB7      30.02S HX 105
FORT STEWART   SUNNY     93  71  48 SW8       30.02F HX  99
STATESBORO     SUNNY     92  74  55 W8        30.05S HX 103
SYLVANIA       NOT AVBL
CLAXTON        FAIR      94  72  48 W8        30.05S HX 102

...CSRA...CENTRAL AND FAR SOUTHEAST GEORGIA...

CITY           SKY/WX    TMP DP  RH WIND       PRES   REMARKS
THOMSON        NOT AVBL
AUGUSTA-BUSH   PTSUNNY   92  70  48 W8        30.02F HX  97
AUGUSTA-DANIEL PTSUNNY   92  70  48 W6        30.05S HX  97
SWAINSBORO     FAIR      91  70  49 SW3       30.06S HX  97
VIDALIA        PTSUNNY   93  70  46 W3        30.06S HX  99
EASTMAN        FAIR      92  57  30 NW7       30.08F HX  90
HAZLEHURST     FAIR      94  72  47 CALM      30.05S HX 102
ALMA           MOSUNNY   92  71  50 W6        30.06S HX  98
WAYCROSS       MOSUNNY   97  75  49 W12       30.05F HX 109
JESUP          FAIR      95  77  55 SW6       30.05F HX 109
BAXLEY         FAIR      93  77  59 W3        30.06S HX 107
BRUNSWICK      SUNNY     95  73  49 SW5       30.06S HX 105
SAINT SIMONS   SUNNY     93  71  48 SW5       30.06S HX 100

$$

SCZ027-028-034-036>038-045-046-048>050-GAZ119-141-301700-
...LAKE AND SUPPLEMENTAL COASTAL OBSERVATIONS...

STATION/POSITION TIME  TEMP    WIND        PRES    WAVE   SWELL
                       AIR SEA DIR/SP/G            HT/PER HT/PER/DIR
                 (UTC) (F)     (DEG/KT/KT) (MB)    (FT/S) (FT/S/D)
WINYAH BAY       1545   93     320/  5     1016.0R
LAKE MURRAY      1500   87     190/  7/  9 1015.9S
ACE BASIN NERRS  1500   92     320/  1     1017.0S
FORT PULASKI     1600   91 87  290/  3/  3 1017.6F
SAPELO ISLAND    1600   92        CALM     1018.0S

$$

ANZ835-935-AMZ111-154-330-350-352-354-370-450-454-472-301700-
...C-MAN AND BUOY OBSERVATIONS...

STATION/POSITION TIME  TEMP    WIND        PRES    WAVE   SWELL
                       AIR SEA DIR/SP/G            HT/PER HT/PER/DIR
                 (UTC) (F)     (DEG/KT/KT) (MB)    (FT/S) (FT/S/D)
BUOY 41004       1550   85 86  250/ 10/ 12 1016.6R   3/ 6   3/210/ 6
BUOY 41008       1550   85 87  200/  6/  8 1018.0R   2/ 4   2/110/ 8
FOLLY BEACH CMAN 1600   89     200/  9/ 11 1017.0R
CAPERS NEARSHORE 1608   87 86  210/  8/ 10 1016.7S
FRIPP NEARSHORE  1608   88 88  220/  4/  8 1016.7F


STATION/POSITION TIME  TEMP    WIND        PRES    WAVE   SWELL
                       AIR SEA DIR/SP/G            HT/PER HT/PER/DIR
                 (UTC) (F)     (DEG/KT/KT) (MB)    (FT/S) (FT/S/D)
5E ST. MARYS GA  1501      86                N/A     1/ 8
FRYING PAN BUOY  1600   85 85  220/ 10/ 10 1016.1S
BUOY 41025       1550   84 86  200/ 12/ 14 1016.4R   2/ 6   2/220/ 6
CAPE LOOKOUT NC  1600   85     240/  6/  8 1015.5F
BUOY 41002       1550   85 85  230/ 10/ 12 1018.5R   3/ 6   2/230/ 6
BUOY 41010       1520   85 87  250/  4/  6 1018.8S
ST AUGUSTINE FL  1600   84 86   80/  8/  8 1019.5F


$$




USA.gov is the U.S. government's official web portal to all federal, state and local government web resources and services.